Temp
62 62 62 62 62 62 62 63 64 64 65 65 66 66 66 66 64 62 59 58 57 58 55 54 55 55 53 53 54 55 55 50 48 47 50 49 49 47 50 55 54 54 55
62 62 61 61 61 60 60 62 63 64 65 65 65 64 60 60 60 57 57 55 53 53 52 51 53 51 51 53 50 48 52 47 44 43 46 46 46 52 52 51 53 54 53
62 62 61 61 61 60 61 62 63 63 64 65 65 64 64 62 60 58 57 55 54 55 52 51 52 51 50 47 47 45 47 48 51 45 47 48 45 51 50 50 49 50 51
63 62 62 61 61 62 63 62 63 63 63 64 65 64 63 63 60 57 55 53 52 52 52 51 51 49 47 46 46 44 49 42 41 44 38 40 45 49 47 45 45 47 46
63 63 62 63 63 63 63 63 63 63 64 63 63 64 64 62 59 57 56 55 53 50 49 49 48 48 45 45 45 41 41 39 37 37 37 39 41 44 43 45 41 43 45
63 62 64 64 64 63 63 63 63 63 64 64 62 62 59 56 47 47 51 52 50 48 46 46 46 43 41 40 39 39 42 38 35 36 37 37 40 42 42 40 39 38 38
64 64 64 64 63 63 64 64 63 62 62 61 60 59 57 55 44 45 44 49 48 46 45 43 41 40 38 37 35 35 35 35 37 39 37 37 38 40 38 37 37 37 37
64 64 64 64 63 64 64 63 63 61 59 58 57 54 54 50 43 41 40 46 44 44 43 41 37 36 36 35 34 34 34 35 35 35 37 39 38 39 38 38 37 37 39
63 63 64 64 63 63 62 62 55 53 50 49 48 48 46 42 39 39 41 40 37 36 37 37 36 35 35 36 35 33 33 33 34 33 33 33 33 33 33 36 34 33 32
63 64 64 63 61 56 52 49 47 48 44 43 42 44 40 39 37 38 39 37 33 32 33 33 34 33 33 33 33 34 32 32 32 34 34 33 32 33 30 33 33 29 31
57 56 56 57 53 51 48 46 44 41 39 36 35 36 38 38 37 37 37 36 33 32 31 30 32 33 33 33 33 34 32 33 29 30 31 31 31 31 31 31 31 30 28
52 50 49 48 47 47 45 43 40 38 35 33 32 31 32 34 35 35 35 35 34 32 31 31 31 33 33 31 32 29 28 28 28 28 27 27 27 28 28 29 30 30 32
48 45 44 44 44 43 40 38 36 35 34 32 31 29 29 30 32 33 33 33 32 31 31 32 32 32 31 30 28 27 27 27 26 25 25 26 26 27 28 27 28 30 30
43 42 41 39 38 39 38 37 36 34 33 32 31 29 28 28 28 29 30 30 30 30 30 31 30 29 29 28 28 27 27 26 26 25 24 25 26 25 23 25 24 25 24
41 39 36 35 34 32 32 34 33 34 35 33 31 30 28 26 27 29 29 28 28 27 28 28 27 26 27 26 26 26 26 26 24 24 23 22 22 22 22 24 23 23 21
36 37 36 35 33 32 30 29 32 32 32 31 31 29 28 29 29 29 29 28 28 27 27 25 23 24 25 26 25 25 24 22 22 19 19 19 19 19 19 21 21 20 19
34 34 34 34 33 31 30 30 27 29 30 30 30 29 29 29 29 29 30 29 27 26 24 23 22 22 23 23 22 21 19 20 18 18 18 18 18 18 16 17 18 18 18
31 30 30 29 29 29 28 27 27 26 25 26 28 29 29 29 29 29 28 27 26 26 25 24 22 22 22 21 20 20 20 19 18 17 16 16 15 15 14 15 16 15 16
29 28 28 28 28 28 28 27 27 27 26 25 26 26 27 27 26 26 26 26 25 24 24 24 23 22 22 21 19 18 17 16 15 14 14 14 14 14 13 14 15 13 13
25 25 26 26 26 26 27 26 27 26 25 24 23 23 24 25 23 22 23 23 23 22 22 21 21 20 19 18 17 15 15 15 15 14 14 13 13 13 12 12 13 13 15
23 23 24 24 24 24 24 24 24 24 22 22 21 21 21 23 21 21 20 19 19 19 17 18 17 16 16 15 15 14 13 13 12 12 12 12 11 11 12 13 13 14 14
24 23 23 22 22 21 21 21 21 20 20 19 18 17 17 19 18 17 16 16 15 16 16 14 14 14 13 12 12 11 10 9 10 10 10 10 10 12 12 12 12 12 13
22 21 20 19 19 18 18 19 18 18 17 17 17 16 16 15 15 14 12 12 12 12 11 12 10 10 11 10 10 9 7 8 9 9 8 9 10 10 10 10 11 11 12
19 19 18 16 16 15 15 15 14 13 14 14 14 13 12 11 10 9 9 10 10 10 9 7 7 6 6 6 8 8 8 8 8 9 9 8 8 9 10 10 10 11 11
15 14 13 12 12 12 11 11 10 10 10 10 10 10 10 10 9 8 8 7 6 6 6 5 5 5 5 3 3 3 4 3 6 5 6 7 7 7 7 8 9 10 11
12 12 11 10 9 9 8 8 6 7 6 6 7 7 7 7 7 6 5 5 4 4 4 5 4 3 2 3 4 3 1 1 1 2 4 6 6 7 8 8 8 10 10
MSLP
1010.21 1010.93 1011.56 1012.00 1012.55 1013.12 1013.33 1013.67 1014.01 1014.56 1014.96 1015.25 1015.46 1015.79 1016.07 1016.20 1016.64 1017.32 1017.71 1018.02 1018.36 1018.42 1018.66 1018.75 1019.09 1019.58 1019.85 1020.29 1020.68 1021.05 1021.37 1022.07 1022.40 1023.39 1023.69 1024.08 1024.29 1024.56 1024.45 1024.36 1024.49 1024.39 1024.26
1009.11 1009.81 1010.21 1010.90 1011.58 1012.17 1012.23 1012.29 1012.98 1013.30 1013.69 1013.94 1014.50 1014.92 1015.16 1015.42 1015.85 1016.42 1016.72 1017.19 1017.51 1017.57 1017.71 1018.08 1018.45 1018.88 1019.29 1019.82 1020.37 1020.85 1020.93 1021.70 1022.35 1022.93 1023.55 1024.17 1024.19 1023.79 1023.95 1024.03 1024.00 1024.07 1023.95
1008.11 1008.34 1009.08 1009.71 1010.31 1010.53 1010.90 1011.54 1012.08 1012.50 1012.74 1012.96 1013.24 1013.54 1013.93 1014.34 1014.75 1015.16 1015.67 1016.26 1016.51 1016.72 1016.97 1017.03 1017.45 1018.38 1018.87 1019.44 1019.89 1020.56 1021.02 1021.74 1022.03 1022.74 1022.92 1023.73 1024.20 1023.74 1023.80 1023.89 1023.78 1023.75 1023.66
1007.13 1007.67 1008.00 1008.18 1008.42 1008.94 1009.60 1010.23 1010.68 1011.23 1011.70 1011.96 1012.21 1012.52 1012.89 1013.28 1013.68 1014.30 1014.74 1015.13 1015.38 1015.79 1016.11 1016.40 1017.03 1017.67 1018.24 1018.82 1019.50 1020.24 1020.78 1021.83 1022.19 1022.80 1023.51 1023.60 1023.72 1023.60 1023.73 1023.57 1023.37 1023.51 1023.35
1005.89 1006.32 1006.10 1006.80 1007.58 1008.05 1008.46 1008.91 1009.47 1009.94 1010.21 1010.66 1011.14 1011.38 1011.83 1012.24 1012.62 1013.31 1013.90 1014.26 1014.76 1015.13 1015.56 1016.05 1016.61 1017.03 1017.57 1018.34 1019.06 1020.06 1020.96 1021.58 1022.44 1022.99 1023.39 1023.47 1023.53 1023.33 1023.20 1023.30 1023.35 1023.11 1022.70
1004.45 1004.57 1005.38 1006.11 1006.42 1006.78 1007.27 1007.74 1008.33 1008.70 1009.08 1009.61 1009.94 1010.40 1011.14 1011.50 1011.82 1012.27 1012.82 1013.36 1013.88 1014.36 1015.07 1015.81 1016.56 1017.19 1017.93 1018.56 1019.35 1020.34 1020.69 1021.86 1022.15 1022.71 1023.17 1023.01 1023.03 1023.20 1023.27 1023.32 1023.18 1022.83 1022.10
1002.87 1003.42 1004.21 1004.87 1005.43 1005.92 1006.47 1006.95 1007.27 1007.57 1008.19 1008.63 1009.06 1009.46 1009.83 1010.51 1011.11 1011.63 1012.09 1012.53 1013.15 1013.88 1014.64 1015.54 1016.58 1017.49 1018.04 1018.86 1019.64 1020.26 1021.19 1021.68 1021.95 1022.39 1022.70 1022.74 1022.92 1023.16 1023.59 1023.18 1022.96 1022.78 1022.38
1001.69 1002.11 1002.91 1003.60 1004.35 1005.13 1005.76 1006.11 1006.64 1007.21 1007.48 1008.00 1008.50 1008.99 1009.40 1009.91 1010.54 1011.29 1012.15 1012.58 1013.34 1014.07 1014.73 1015.37 1016.45 1017.45 1018.13 1019.07 1019.77 1020.77 1021.38 1021.84 1022.40 1022.66 1022.74 1022.85 1023.06 1023.24 1023.23 1023.12 1022.95 1022.64 1022.07
1000.74 1001.54 1002.30 1003.00 1003.61 1004.37 1005.11 1005.86 1006.54 1007.06 1007.59 1007.93 1008.42 1008.95 1009.53 1010.34 1010.79 1011.34 1012.17 1012.94 1013.91 1014.89 1015.37 1015.87 1016.50 1017.56 1018.56 1019.32 1019.95 1020.82 1021.60 1022.24 1022.74 1022.96 1023.01 1023.11 1023.36 1023.36 1023.36 1022.99 1022.51 1022.06 1021.39
1000.02 1000.69 1001.81 1002.62 1003.47 1004.25 1004.96 1005.87 1006.68 1007.28 1007.97 1008.71 1009.28 1009.61 1009.94 1010.68 1011.39 1011.75 1012.37 1013.51 1014.43 1015.41 1016.33 1016.76 1017.45 1017.96 1018.88 1019.64 1020.26 1020.82 1021.53 1022.21 1022.72 1022.84 1022.97 1023.04 1023.37 1022.97 1023.29 1022.96 1022.60 1022.19 1021.74
1001.13 1001.53 1002.28 1002.99 1003.83 1004.43 1005.19 1006.13 1006.97 1007.77 1008.75 1009.60 1010.19 1010.87 1011.03 1011.42 1012.03 1012.48 1013.09 1013.79 1014.43 1015.55 1016.27 1017.66 1018.39 1018.76 1019.50 1020.22 1020.72 1021.14 1021.69 1022.29 1022.82 1022.97 1023.03 1023.11 1022.96 1022.89 1023.12 1022.96 1022.96 1022.63 1022.04
1001.47 1002.07 1002.72 1003.35 1004.18 1005.16 1005.94 1006.89 1007.83 1008.69 1009.64 1010.46 1011.10 1011.83 1012.47 1012.63 1013.17 1013.55 1013.76 1014.34 1014.95 1015.52 1017.06 1018.14 1018.93 1019.45 1020.08 1020.65 1021.09 1021.74 1022.34 1022.76 1022.90 1022.88 1023.00 1022.71 1022.81 1022.90 1022.90 1022.95 1022.70 1022.33 1021.93
1002.48 1003.30 1003.64 1004.33 1005.41 1005.89 1006.54 1007.52 1008.71 1009.35 1010.33 1011.26 1011.93 1012.71 1013.45 1013.89 1014.06 1014.43 1014.92 1015.65 1016.30 1016.92 1017.86 1018.63 1019.35 1020.08 1020.67 1021.24 1021.71 1022.29 1022.54 1022.79 1022.96 1023.07 1022.92 1022.85 1022.95 1023.01 1022.95 1022.65 1022.26 1021.84 1021.43
1003.66 1004.52 1005.06 1005.41 1006.78 1007.35 1007.62 1008.42 1009.18 1009.88 1010.62 1011.34 1012.29 1013.35 1014.04 1014.39 1015.05 1015.09 1015.95 1016.68 1017.40 1018.08 1018.87 1019.54 1020.22 1020.81 1021.12 1021.55 1022.11 1022.50 1022.65 1022.98 1023.08 1023.10 1023.10 1023.04 1022.99 1022.91 1022.81 1022.57 1022.11 1021.63 1020.97
1004.80 1005.68 1005.87 1006.92 1007.51 1008.35 1009.01 1009.67 1010.20 1010.73 1010.84 1011.16 1012.35 1013.23 1013.91 1015.06 1015.91 1015.82 1016.47 1017.17 1017.92 1018.69 1019.38 1020.07 1020.60 1020.95 1021.28 1021.71 1022.21 1022.59 1022.88 1023.07 1023.11 1023.22 1023.17 1023.08 1022.97 1022.86 1022.68 1022.41 1022.04 1021.46 1020.76
1004.98 1006.58 1007.25 1007.66 1008.27 1009.12 1009.74 1010.59 1011.45 1011.71 1012.21 1012.86 1013.63 1014.20 1015.38 1015.96 1016.28 1016.81 1017.41 1018.00 1018.65 1019.31 1019.76 1020.27 1020.81 1021.14 1021.40 1021.73 1022.13 1022.55 1022.93 1023.18 1023.32 1023.50 1023.43 1023.26 1022.95 1022.77 1022.59 1022.28 1021.91 1021.35 1020.62
1007.13 1007.66 1008.27 1008.97 1009.55 1010.26 1010.97 1011.33 1012.32 1013.62 1013.52 1014.41 1015.28 1015.62 1015.96 1016.57 1017.13 1017.68 1018.28 1018.81 1019.33 1019.67 1019.95 1020.48 1020.92 1021.36 1021.66 1022.03 1022.43 1022.83 1023.17 1023.38 1023.60 1023.46 1023.34 1023.17 1022.97 1022.80 1022.71 1022.17 1021.76 1021.26 1020.57
1009.04 1009.37 1009.56 1010.10 1010.79 1011.66 1012.34 1012.76 1013.18 1013.84 1014.92 1015.92 1016.58 1016.82 1017.29 1017.62 1018.09 1018.49 1019.00 1019.38 1019.80 1020.12 1020.40 1020.83 1021.32 1021.74 1022.07 1022.45 1022.77 1023.06 1023.22 1023.35 1023.50 1023.46 1023.32 1023.25 1023.17 1022.92 1022.56 1022.09 1021.69 1021.30 1020.58
1010.39 1010.89 1011.13 1011.55 1012.30 1012.65 1013.56 1014.18 1014.33 1014.56 1015.50 1016.79 1017.66 1018.17 1018.55 1018.72 1019.11 1019.55 1019.83 1019.90 1020.27 1020.68 1021.08 1021.41 1021.82 1022.33 1022.62 1022.92 1023.21 1023.44 1023.54 1023.57 1023.68 1023.60 1023.46 1023.30 1023.08 1022.94 1022.44 1022.08 1021.62 1021.30 1020.78
1012.22 1012.17 1012.64 1013.25 1013.83 1014.47 1014.76 1015.30 1015.97 1016.19 1016.76 1017.61 1018.32 1019.03 1019.41 1019.58 1019.99 1020.45 1020.82 1020.97 1021.19 1021.60 1021.91 1022.08 1022.48 1022.95 1023.27 1023.46 1023.61 1023.76 1023.73 1023.63 1023.52 1023.38 1023.21 1023.09 1022.95 1022.76 1022.38 1021.94 1021.46 1020.94 1020.31
1014.06 1014.38 1014.55 1014.86 1015.78 1015.89 1016.48 1016.72 1017.43 1017.72 1018.22 1019.03 1019.54 1020.21 1020.33 1020.28 1020.77 1021.29 1021.82 1022.24 1022.48 1022.81 1023.09 1023.16 1023.34 1023.64 1023.87 1023.98 1023.99 1023.95 1024.05 1023.94 1023.81 1023.63 1023.37 1023.07 1022.88 1022.53 1022.20 1021.68 1021.13 1020.52 1019.93
1015.62 1016.12 1016.41 1016.74 1017.30 1017.43 1017.80 1018.33 1018.77 1019.16 1019.68 1020.32 1020.99 1021.46 1021.45 1021.52 1021.95 1022.53 1023.20 1023.63 1023.87 1023.96 1024.05 1024.21 1024.23 1024.36 1024.43 1024.52 1024.52 1024.44 1024.33 1024.14 1023.89 1023.61 1023.32 1023.11 1022.69 1022.16 1021.77 1021.37 1020.96 1020.47 1019.77
1017.48 1017.82 1018.10 1018.60 1018.83 1019.19 1019.36 1020.03 1020.13 1020.66 1021.23 1021.68 1022.00 1022.23 1022.47 1022.83 1023.24 1023.74 1024.36 1024.70 1024.81 1024.91 1025.00 1024.91 1024.90 1024.87 1024.72 1024.83 1024.86 1024.76 1024.55 1024.19 1023.91 1023.74 1023.30 1022.82 1022.43 1022.10 1021.79 1021.10 1020.50 1019.94 1019.29
1019.41 1019.68 1020.10 1020.21 1020.63 1020.98 1021.19 1021.61 1022.00 1022.36 1022.64 1022.87 1023.10 1023.43 1023.74 1024.17 1024.50 1024.85 1025.06 1025.27 1025.35 1025.36 1025.43 1025.47 1025.35 1025.24 1025.16 1025.07 1024.85 1024.70 1024.41 1024.15 1023.95 1023.52 1023.15 1022.85 1022.42 1021.86 1021.50 1020.79 1020.22 1019.65 1019.10
1021.41 1021.38 1021.75 1022.25 1022.56 1022.77 1023.07 1023.26 1023.47 1023.86 1023.99 1024.02 1024.28 1024.55 1024.78 1024.92 1025.14 1025.37 1025.47 1025.61 1025.81 1025.64 1025.57 1025.60 1025.47 1025.24 1025.07 1025.13 1024.95 1024.70 1024.38 1024.21 1023.77 1023.63 1023.25 1022.60 1022.01 1021.57 1021.12 1020.50 1019.96 1019.30 1018.68
1023.06 1023.23 1023.44 1023.80 1024.05 1024.35 1024.40 1024.69 1024.84 1024.90 1025.01 1025.29 1025.44 1025.65 1025.81 1025.78 1025.77 1025.84 1025.87 1025.86 1025.89 1025.81 1025.72 1025.41 1025.27 1025.22 1025.07 1024.70 1024.33 1024.19 1024.10 1023.95 1023.62 1023.31 1022.88 1022.16 1021.51 1020.99 1020.52 1020.01 1019.44 1018.90 1018.32
Wind_Speed
20 19 19 18 18 16 16 16 16 15 15 16 15 15 15 13 9 9 10 9 12 11 9 9 11 11 7 7 7 7 7 4 5 3 1 2 3 2 3 4 4 5 5
18 19 20 18 17 17 19 20 16 17 16 16 16 15 11 11 11 11 12 10 12 11 10 10 10 8 10 10 7 8 8 6 4 5 6 4 5 5 5 5 3 4 6
18 19 18 19 19 21 20 17 17 16 16 16 16 16 16 15 12 11 12 11 12 13 12 13 12 13 11 9 8 7 6 6 6 4 5 3 3 3 3 4 5 6 6
19 20 19 19 20 19 17 17 17 17 17 17 17 17 16 14 13 12 12 11 12 11 11 11 10 13 12 11 9 8 9 6 5 5 3 3 4 3 4 5 6 4 8
18 19 21 18 17 16 16 17 17 18 17 17 16 16 15 15 12 14 12 13 12 10 9 9 10 12 13 12 9 9 8 6 5 4 3 3 4 5 5 3 6 7 8
18 20 16 16 17 17 16 16 16 17 17 16 16 16 13 10 12 17 14 12 12 11 10 8 8 13 11 14 15 9 10 6 5 3 3 4 5 5 4 5 6 6 5
18 17 16 16 16 16 16 16 17 17 15 16 15 15 14 13 15 17 16 9 10 10 11 11 9 8 13 13 16 17 11 9 5 5 5 4 4 3 5 6 7 7 8
17 16 16 16 16 16 15 16 15 13 14 12 12 10 10 7 13 13 11 8 8 9 10 12 13 11 11 12 12 9 8 6 5 3 3 2 4 5 6 7 9 10 9
15 15 15 15 15 14 14 13 4 5 4 4 4 6 6 5 14 17 12 10 10 10 9 10 12 12 15 16 10 9 8 6 6 5 2 2 3 4 5 5 6 7 7
12 13 11 12 10 9 8 8 3 4 5 6 6 4 8 9 13 15 14 9 11 9 10 11 15 14 15 11 7 8 8 7 4 3 2 1 2 1 4 5 5 7 7
8 10 10 9 8 8 7 4 7 9 9 8 10 8 8 8 11 15 15 8 9 8 10 8 7 15 14 12 9 6 6 6 5 2 1 2 1 2 3 4 5 6 7
9 9 9 9 7 7 10 8 9 9 10 8 10 9 7 9 12 14 16 15 12 11 9 7 9 15 16 14 10 13 11 5 3 1 2 1 2 3 4 6 8 8 9
10 10 10 11 8 8 11 10 8 9 8 7 7 8 7 7 9 19 20 19 16 11 8 12 17 17 16 12 13 11 5 3 1 1 1 2 3 4 7 7 8 10 12
11 10 9 11 10 9 8 7 7 8 8 8 8 7 7 7 6 8 9 11 15 12 12 10 9 9 7 8 7 4 3 2 1 1 2 3 4 4 5 6 7 8 9
10 9 10 9 10 11 11 7 6 6 4 8 7 7 8 8 6 12 11 8 8 9 10 8 6 5 5 4 3 3 2 1 1 2 4 4 5 5 6 6 6 8 9
12 7 7 8 8 9 10 13 22 21 24 22 18 13 11 18 20 19 18 18 18 12 5 6 4 3 3 3 2 1 0 2 2 3 4 5 6 6 7 7 7 8 9
9 10 9 9 8 9 9 11 14 17 26 24 22 21 20 19 19 19 18 17 14 7 5 4 4 3 3 2 1 0 1 2 2 4 5 6 6 6 8 7 8 8 9
13 14 10 9 9 9 8 9 9 10 11 11 16 16 18 18 16 16 16 11 6 5 4 3 3 2 2 1 0 2 3 4 4 5 6 6 6 7 7 8 8 9 10
12 10 11 10 9 10 8 8 8 10 11 10 9 12 14 18 17 15 10 5 4 4 4 3 3 2 2 2 2 3 4 4 5 6 6 6 6 7 8 8 9 11 12
13 19 14 10 10 9 9 9 8 9 9 9 8 7 5 6 7 7 6 6 5 4 4 4 4 3 3 3 3 4 5 6 6 7 7 7 7 7 8 9 9 10 10
9 10 14 11 9 9 9 10 9 9 9 9 9 9 10 7 7 7 6 6 6 5 5 4 4 4 4 4 5 6 6 7 7 8 8 7 7 7 8 8 9 9 9
10 10 10 11 9 10 10 9 9 9 9 9 8 9 12 8 7 7 6 6 6 5 5 5 4 4 4 5 5 6 7 8 8 8 7 7 8 8 8 8 9 9 9
11 11 11 10 10 11 10 10 9 9 9 8 7 7 7 7 7 6 6 5 5 4 4 4 4 4 5 5 5 6 7 8 8 8 8 8 8 8 8 9 9 9 9
11 11 11 10 10 9 10 9 9 11 9 7 7 7 6 6 5 5 4 4 4 4 3 4 4 6 6 6 6 7 7 7 7 8 10 8 9 10 9 9 9 10 10
10 11 10 9 9 8 8 8 8 7 7 7 6 6 5 5 5 4 4 4 4 4 5 5 4 6 7 10 10 11 10 10 9 9 9 10 12 13 11 9 10 10 11
10 10 9 8 8 8 7 7 7 7 7 6 6 5 5 4 4 4 4 5 5 6 6 5 6 9 11 10 11 11 12 11 11 11 9 10 10 9 8 10 12 9 11
Wind_Direction
198 198 204 207 210 212 218 219 220 220 220 226 228 230 233 232 230 230 233 229 223 225 210 206 210 203 198 190 189 186 184 176 202 140 166 149 252 253 255 262 262 274 277
195 200 205 206 208 214 220 220 217 219 215 215 220 230 224 217 213 216 231 220 215 208 201 197 209 198 188 185 179 174 177 164 135 172 183 217 228 257 269 274 280 294 289
201 200 201 205 204 210 215 213 215 218 221 220 220 220 226 228 222 222 223 212 214 213 203 199 203 191 187 169 170 161 162 167 179 167 180 204 251 245 248 272 297 302 291
202 208 210 207 208 210 213 213 210 208 214 218 221 226 228 228 221 214 206 208 212 211 201 196 187 193 177 171 170 157 163 148 144 170 180 201 235 204 270 285 286 287 286
205 210 216 210 213 214 212 209 209 211 217 219 224 230 228 224 218 210 205 210 205 195 184 185 182 180 167 162 156 149 153 144 146 158 182 193 231 248 268 295 279 295 291
201 215 216 215 212 213 213 212 210 215 218 219 225 232 229 226 203 203 204 199 193 182 172 160 145 136 129 118 104 104 147 151 146 155 195 211 247 258 264 287 293 299 308
205 211 209 209 214 216 215 216 216 215 215 220 225 224 217 213 199 202 203 183 173 167 156 141 126 121 117 112 105 109 101 97 105 170 206 212 253 254 290 287 286 285 274
207 205 202 201 210 211 212 214 215 215 214 216 217 205 208 199 184 166 144 135 127 137 142 137 132 130 128 128 123 124 125 124 132 150 176 206 253 270 270 283 292 285 280
204 209 206 204 205 204 206 212 171 156 161 153 152 157 154 140 146 138 133 119 110 104 109 116 122 118 124 131 125 129 133 128 114 93 67 20 344 341 320 291 274 297 301
201 198 192 187 184 163 141 145 124 103 101 95 79 92 120 124 128 124 122 119 114 108 89 94 103 115 127 132 130 146 155 154 161 154 140 147 270 353 317 284 301 283 296
124 122 126 134 144 139 120 107 118 110 100 92 87 69 85 108 116 120 124 126 124 117 111 111 111 123 128 126 125 130 131 141 129 132 203 229 294 325 286 305 290 279 278
121 116 107 103 107 109 111 103 102 106 107 107 103 86 65 77 93 99 105 110 123 120 120 113 120 130 125 121 113 113 110 116 124 129 238 328 311 294 309 297 292 283 272
92 89 92 90 87 101 115 111 104 104 110 105 100 98 87 76 79 90 92 90 87 94 103 119 126 122 117 103 110 112 114 96 93 256 308 310 316 311 306 305 296 286 283
100 101 96 92 88 79 80 92 114 120 122 122 120 113 107 104 91 91 91 90 90 91 98 99 98 104 105 115 123 110 99 94 8 329 318 313 309 306 304 305 299 305 295
97 96 98 95 94 86 69 60 70 45 88 134 128 128 125 110 100 102 104 100 99 108 117 121 127 132 141 135 130 123 107 50 324 338 324 326 310 311 304 304 305 303 295
99 95 91 102 97 94 94 84 69 83 83 84 87 100 96 108 107 107 110 114 121 125 111 124 125 131 150 162 167 185 251 315 351 337 319 310 307 307 310 307 302 300 298
91 100 96 89 94 93 94 98 98 75 83 87 93 99 101 109 109 109 111 111 106 105 114 121 134 152 157 149 151 106 331 344 353 310 309 306 303 304 304 303 304 302 299
65 65 75 75 81 82 87 95 100 98 95 89 84 96 98 102 104 108 109 108 103 91 98 117 123 128 118 101 69 323 319 318 316 313 307 303 298 297 302 299 301 302 300
66 64 66 70 68 74 76 76 83 95 97 99 92 74 74 80 77 72 67 69 74 77 74 78 75 73 52 9 352 328 323 316 316 306 299 295 297 300 297 297 296 296 296
60 66 69 64 63 60 67 73 76 86 90 91 87 79 76 80 71 64 59 60 63 64 55 61 67 49 22 352 339 327 309 306 306 304 306 302 298 294 291 292 293 297 298
64 63 67 69 61 70 65 74 74 79 82 79 74 64 62 74 69 67 66 56 54 55 47 40 37 24 3 340 324 320 312 310 307 303 300 297 293 289 291 289 289 289 292
65 66 67 70 70 69 72 72 72 75 78 82 79 67 66 70 72 72 66 58 50 44 37 30 17 2 347 334 325 315 305 301 300 297 295 288 283 288 292 295 297 294 297
67 70 70 70 71 72 72 72 74 75 75 73 72 69 63 65 64 64 60 44 43 42 30 17 356 342 338 327 320 308 299 298 301 300 293 291 292 295 295 293 292 292 297
63 68 71 67 64 68 69 72 72 68 71 69 67 67 68 67 63 58 52 45 24 14 6 355 337 333 331 321 314 307 295 296 295 286 289 295 291 291 290 292 291 293 292
64 66 68 68 68 70 74 69 69 65 61 56 59 58 56 51 51 43 26 4 350 336 335 322 322 324 318 318 307 305 304 300 291 308 288 282 281 283 282 284 287 289 291
64 67 68 67 66 64 66 66 61 59 60 60 58 51 34 21 14 356 346 333 333 323 320 321 316 320 317 309 306 314 311 302 295 292 285 280 278 281 283 286 288 289 291